Panama City, FL

4:19 AM CDT on May 29, 2017 (GMT -0500)
Northwest Florida Beaches International

Weather History for KECP - March, 2013

Change the Weather History Date:

Tuesday, March 19, 2013

  Actual Average Record
Temperature  
Mean Temperature 68 °F -  
Max Temperature 79 °F - 81 °F (2011)
Min Temperature 57 °F - 48 °F (2014)
Degree Days  
Heating Degree Days 0    
Cooling Degree Days 3    
Growing Degree Days 20 (Base 50)    
Moisture  
Dew Point 59 °F    
Average Humidity 73    
Maximum Humidity 97    
Minimum Humidity 48    
Precipitation  
Precipitation 0.21 in - 0.21 in (2013)
Month to date precipitation  
Year to date precipitation  
Sea Level Pressure  
Sea Level Pressure 29.98 in    
Wind  
Wind Speed 7 mph (NNE)    
Max Wind Speed 16 mph    
Max Gust Speed 22 mph    
Visibility 9 miles    
Events Rain , Thunderstorm    
T = Trace of Precipitation, MM = Missing Value Source: NWS Daily Summary

Daily Weather History Graph

Daily Weather History Graph

Search for Another Location

Airport or City:

Trip Planner

Search our weather history database for the weather conditions in past years. The results will help you decide how hot, cold, wet, or windy it might be!

Date:

Astronomy

Mar. 19, 2013 Rise Set
Actual Time 7:47 AM EDT 7:54 PM EDT
Civil Twilight 7:23 AM EDT 8:18 PM EDT
Nautical Twilight 6:56 AM EDT 8:46 PM EDT
Astronomical Twilight 6:27 AM EDT 9:14 PM EDT
Moon 1:00 PM EDT (3/19) 2:17 AM EDT (3/19)
Length of Visible Light 12h 54m
Length of Day
12h 06m
Waxing Crescent, 49% of the Moon is Illuminated
Mar 19
Waxing Crescent
Mar 19
First Quarter
Mar 27
Full
Apr 3
Last Quarter
Apr 10
New

Hourly Weather History & Observations

Time (EDT) Temp. Dew Point Humidity Pressure Visibility Wind Dir Wind Speed Gust Speed Precip Events Conditions
12:15 AM 69.8 °F 66.2 °F 88% 29.89 in 8.0 mi NNE 8.1 mph - N/A   Overcast
12:23 AM 66.2 °F 60.8 °F 83% 29.89 in 9.0 mi NNE 10.4 mph - N/A   Overcast
12:53 AM 64.9 °F 59.0 °F 81% 29.94 in 10.0 mi NNE 11.5 mph - N/A   Overcast
1:18 AM 64.4 °F 59.0 °F 83% 29.91 in 10.0 mi NE 11.5 mph - N/A   Overcast
1:53 AM 63.0 °F 60.1 °F 90% 29.93 in 10.0 mi East 9.2 mph - 0.00 in Rain Light Rain
2:53 AM 62.1 °F 60.1 °F 93% 29.94 in 10.0 mi East 5.8 mph - 0.00 in   Overcast
3:14 AM 62.6 °F 59.0 °F 88% 29.91 in 9.0 mi North 8.1 mph 21.9 mph 0.00 in Rain Light Rain
3:34 AM 62.6 °F 60.8 °F 94% 29.92 in 2.5 mi NE 8.1 mph - 0.10 in Rain , Thunderstorm Heavy Rain
3:37 AM 62.6 °F 60.8 °F 94% 29.92 in 2.0 mi NNE 9.2 mph - 0.17 in Rain , Thunderstorm Heavy Rain
3:50 AM 62.6 °F 60.8 °F 94% 29.91 in 6.0 mi NNE 8.1 mph - 0.20 in Rain , Thunderstorm Light Rain
3:53 AM 62.1 °F 60.1 °F 93% 29.95 in 5.0 mi NE 9.2 mph - 0.21 in Rain , Thunderstorm Heavy Rain
4:04 AM 62.6 °F 59.0 °F 88% 29.92 in 10.0 mi NNE 6.9 mph - 0.00 in Rain Light Rain
4:20 AM 62.6 °F 59.0 °F 88% 29.91 in 10.0 mi ENE 5.8 mph - 0.00 in Rain Light Rain
4:36 AM 62.6 °F 60.8 °F 94% 29.91 in 10.0 mi East 3.5 mph - 0.00 in   Overcast
4:53 AM 62.1 °F 60.1 °F 93% 29.95 in 10.0 mi East 3.5 mph - 0.00 in   Overcast
5:53 AM 62.1 °F 60.1 °F 93% 29.96 in 10.0 mi ESE 5.8 mph - N/A   Mostly Cloudy
6:24 AM 62.6 °F 60.8 °F 94% 29.96 in 10.0 mi NNW 13.8 mph - N/A   Overcast
6:45 AM 62.6 °F 60.8 °F 94% 29.96 in 10.0 mi North 5.8 mph - N/A   Overcast
6:53 AM 62.1 °F 59.0 °F 90% 30.00 in 10.0 mi NNE 3.5 mph - N/A   Overcast
7:53 AM 62.1 °F 59.0 °F 90% 30.03 in 10.0 mi Calm Calm - N/A   Overcast
8:53 AM 62.1 °F 59.0 °F 90% 30.04 in 10.0 mi NNW 5.8 mph - N/A   Overcast
9:53 AM 62.1 °F 57.9 °F 86% 30.05 in 10.0 mi NNW 9.2 mph - N/A   Overcast
10:53 AM 64.0 °F 57.9 °F 80% 30.07 in 10.0 mi North 11.5 mph - N/A   Mostly Cloudy
11:53 AM 66.9 °F 57.9 °F 73% 30.07 in 10.0 mi North 8.1 mph - N/A   Mostly Cloudy
12:23 PM 66.2 °F 57.2 °F 73% 30.04 in 10.0 mi NNE 9.2 mph - N/A   Mostly Cloudy
12:53 PM 69.1 °F 57.9 °F 68% 30.06 in 10.0 mi NNE 9.2 mph - N/A   Mostly Cloudy
1:21 PM 69.8 °F 57.2 °F 64% 30.02 in 10.0 mi NNE 8.1 mph - N/A   Partly Cloudy
1:53 PM 71.1 °F 57.9 °F 63% 30.04 in 10.0 mi NNE 5.8 mph - N/A   Clear
2:53 PM 75.9 °F 59.0 °F 56% 30.01 in 10.0 mi North 3.5 mph - N/A   Clear
3:53 PM 77.0 °F 59.0 °F 54% 29.99 in 10.0 mi Variable 3.5 mph - N/A   Clear
4:53 PM 78.1 °F 57.9 °F 50% 29.98 in 10.0 mi Variable 3.5 mph - N/A   Scattered Clouds
5:53 PM 79.0 °F 59.0 °F 50% 29.97 in 10.0 mi North 8.1 mph - N/A   Mostly Cloudy
6:53 PM 73.9 °F 59.0 °F 59% 29.97 in 10.0 mi North 5.8 mph - N/A   Overcast
7:53 PM 68.0 °F 61.0 °F 78% 29.99 in 10.0 mi South 5.8 mph - N/A   Partly Cloudy
8:53 PM 68.0 °F 60.1 °F 76% 30.01 in 10.0 mi Calm Calm - N/A   Scattered Clouds
9:53 PM 64.0 °F 60.1 °F 87% 30.01 in 10.0 mi Calm Calm - N/A   Partly Cloudy
10:53 PM 61.0 °F 59.0 °F 93% 30.03 in 10.0 mi Calm Calm - N/A   Clear
11:53 PM 59.0 °F 57.0 °F 93% 30.03 in 10.0 mi Calm Calm - N/A   Partly Cloudy